Location: La Trinit�
(48.1620°N, 3.4512°W)
Time: 18:22:31
(UTC+00:00)

Cosmos 1544 - Pass Details

Date: 08 May 2021
Orbit: 471 x 487 km, 82.5° (Epoch: 15 June)

Event Time Altitude Azimuth Distance (km) Brightness Sun altitude
Rises 22:49:57 0° 350° (N) 2,534 8.1 -22.1°
Reaches altitude 10° 22:52:03 10° 350° (N) 1,653 6.9 -22.2°
Enters shadow 22:55:21 74° 338° (NNW) 502 3.1 -22.4°
